RH
74 72 75 84 93 74 55 50 48 65 48 59 52 48 50 62 59 59 70 71 63 63 61 58 56 55 52 56 56 55 58 58 63 74 73 69 72 76 76 78 86 77 74 74 73 77 74 78 64
73 74 89 85 80 69 66 56 65 51 66 49 58 51 46 50 56 56 61 59 60 59 61 63 64 63 54 52 53 55 57 61 63 70 75 68 67 68 72 72 69 68 70 67 64 66 62 60 58
72 81 82 88 74 68 61 56 52 56 57 66 48 46 43 48 53 56 62 60 55 60 59 57 62 63 63 54 56 60 64 70 77 75 65 73 68 68 71 69 71 66 64 61 59 59 58 58 58
79 88 87 83 72 59 68 58 49 62 61 51 43 46 46 50 51 55 55 58 66 63 56 54 60 58 56 61 65 65 67 65 60 66 72 71 67 65 68 69 64 67 62 62 62 61 57 53 49
85 93 80 81 68 59 56 50 72 48 56 46 45 45 49 50 50 54 60 62 62 61 56 57 59 61 62 61 62 60 60 59 61 58 63 59 58 59 61 63 65 61 57 59 58 57 54 48 41
82 93 86 66 61 57 56 51 67 57 51 46 45 47 47 47 50 56 55 66 61 54 50 53 61 61 58 58 58 58 60 58 60 56 55 57 59 63 64 63 62 59 58 60 61 58 53 47 44
83 85 80 66 60 68 61 59 60 49 48 43 43 45 46 48 52 57 62 69 59 56 49 51 55 57 59 61 61 61 60 66 59 62 59 60 58 58 62 62 62 63 61 63 59 55 48 42 40
82 95 83 64 71 67 61 55 51 57 51 42 43 46 45 48 50 58 61 60 64 55 55 53 53 58 61 62 62 65 66 64 65 66 62 59 56 59 60 62 62 63 63 58 54 45 33 32 31
75 88 90 77 75 65 61 60 54 46 41 43 45 43 42 48 49 56 57 59 71 62 61 58 56 62 62 62 65 62 63 62 61 58 56 54 57 58 61 62 63 59 57 50 43 41 41 41 38
75 86 90 75 80 67 66 62 58 49 47 39 37 41 41 48 50 48 55 57 61 64 66 60 64 64 65 65 64 68 66 67 66 59 59 63 63 61 59 58 58 52 45 43 45 44 44 48 46
72 90 77 76 70 65 66 66 67 63 53 42 38 35 42 47 49 48 48 58 57 57 65 60 66 72 69 67 71 71 70 74 71 79 71 70 66 62 55 49 48 42 38 39 38 42 50 50 42
71 67 73 74 66 67 67 70 70 72 64 47 38 35 42 45 47 51 47 51 54 62 65 65 65 75 70 71 71 90 80 79 78 74 69 66 64 57 50 44 41 38 32 39 47 42 40 41 38
74 68 69 73 71 67 68 68 73 66 57 47 42 37 41 44 46 51 49 51 52 54 59 63 63 66 71 75 79 94 83 71 77 74 66 60 53 53 49 43 43 42 38 44 44 36 39 42 41
75 70 67 68 70 65 65 68 73 70 64 48 45 37 38 42 42 45 47 49 49 50 54 54 56 61 70 83 77 86 76 73 84 71 60 55 53 46 45 42 49 45 35 39 32 35 46 51 49
75 69 68 65 59 60 67 71 74 69 68 55 46 41 37 38 41 43 44 50 46 46 47 45 47 51 57 59 65 73 72 73 68 54 57 51 47 43 42 42 38 37 35 32 31 35 40 51 46
67 68 69 84 64 65 57 75 71 68 67 60 61 45 41 38 40 41 45 48 49 46 45 42 45 48 47 49 58 78 60 64 52 41 38 39 38 38 37 33 32 29 27 33 35 36 52 49 46
58 66 77 69 61 66 53 69 87 64 64 65 65 55 47 37 37 40 42 44 46 45 44 42 45 43 45 43 58 53 51 56 46 36 29 28 31 33 41 36 31 33 37 37 37 45 48 47 51
57 55 61 56 55 73 50 53 61 60 58 58 65 65 56 43 35 34 36 41 41 44 44 46 49 43 43 40 49 44 45 48 41 38 29 26 30 34 43 39 36 36 46 39 42 36 48 50 56
55 57 56 59 58 66 51 55 58 59 54 57 61 66 67 54 42 34 35 38 38 42 42 48 51 47 47 45 52 49 43 47 49 42 40 33 32 38 40 36 31 37 44 36 33 40 44 45 51
48 53 52 56 55 49 46 55 62 54 50 51 63 64 66 66 51 41 35 35 36 39 39 41 45 45 47 45 47 49 49 60 44 45 48 40 35 38 39 34 37 40 38 30 24 37 47 46 46
39 46 47 47 52 46 38 48 64 55 52 52 56 67 65 66 62 48 38 35 35 38 36 38 41 39 41 43 49 49 52 48 49 56 45 45 37 37 41 36 32 34 36 23 17 37 44 48 42
39 37 41 49 55 50 48 36 41 53 63 55 54 59 65 63 65 57 46 37 34 38 35 35 37 37 40 44 49 51 50 54 59 49 37 37 36 30 33 33 32 31 36 36 27 27 41 46 50
36 38 42 44 49 42 45 48 46 48 51 54 50 52 57 62 62 67 54 44 37 37 37 35 33 34 36 41 48 48 48 52 45 42 36 32 27 30 28 24 27 28 29 31 28 25 34 40 43
36 38 41 44 46 46 39 40 44 45 50 57 54 50 55 60 64 66 65 52 47 39 36 34 32 32 36 35 39 39 44 45 40 47 45 35 29 30 40 31 23 23 23 23 22 25 29 32 35
34 35 39 48 50 44 36 33 41 47 55 55 61 58 52 63 69 66 65 60 49 48 40 31 31 30 30 35 39 34 40 42 47 39 39 29 33 36 37 33 24 24 24 23 19 21 28 31 32
32 32 36 41 44 38 35 34 32 43 45 44 49 59 50 56 64 68 63 62 56 51 50 44 30 27 29 30 31 33 39 43 40 35 32 30 38 48 39 38 31 25 27 21 17 17 25 28 29
32 33 30 35 32 34 34 30 28 39 40 44 46 54 50 53 56 61 59 63 62 53 53 52 41 30 25 25 26 28 30 36 42 37 33 27 39 49 44 36 33 31 29 30 21 17 23 29 28
28 35 35 34 39 43 37 36 36 40 39 35 40 47 49 45 58 64 62 54 62 63 57 56 49 44 37 27 25 24 25 29 34 39 34 34 35 45 34 30 29 29 28 31 26 23 22 27 28
30 32 35 31 31 37 40 36 36 43 40 40 44 46 57 46 48 58 58 51 45 54 63 58 56 50 46 37 32 27 23 25 29 31 34 38 37 33 34 36 34 27 29 30 28 25 29 33 35
25 30 32 34 34 29 32 31 31 38 42 38 46 48 50 52 57 53 60 59 50 44 49 59 59 52 50 41 38 32 27 24 24 26 31 35 31 33 35 31 32 30 28 27 29 26 24 26 33